• In India
  • List of Countries
  • For 7 days
  • Water Temperature
  • Satellite Maps
  • Weather Map
  • Weather Widgets
  • user-avatar
    Login

    Hourly Weather Ligotka

    Today, 16 July, Monday

    Time Temperature Precipitation Wind Pressure Humidity
    00:00 +19°C° 0 mm 1 mps 752 mmHg 75%
    01:00 +17°C° 0 mm 2 mps 752 mmHg 76%
    02:00 +17°C° 0.1 mm 2 mps 752 mmHg 79%
    03:00 +17°C° 0.1 mm 2 mps 752 mmHg 83%
    04:00 +16°C° 0.1 mm 1 mps 752 mmHg 86%
    05:00 +17°C° 0 mm 2 mps 752 mmHg 83%
    06:00 +19°C° 0 mm 2 mps 752 mmHg 79%
    07:00 +20°C° 0 mm 2 mps 752 mmHg 75%
    08:00 +23°C° 0.1 mm 2 mps 751 mmHg 70%
    09:00 +24°C° 0.1 mm 3 mps 751 mmHg 64%
    10:00 +26°C° 0.1 mm 3 mps 751 mmHg 59%
    11:00 +27°C° 0.1 mm 3 mps 751 mmHg 55%
    12:00 +27°C° 0.1 mm 3 mps 750 mmHg 52%
    13:00 +28°C° 0.1 mm 3 mps 750 mmHg 48%
    14:00 +28°C° 0.3 mm 3 mps 750 mmHg 49%
    15:00 +28°C° 0.3 mm 3 mps 749 mmHg 50%
    16:00 +28°C° 0.3 mm 3 mps 749 mmHg 52%
    17:00 +27°C° 0.2 mm 2 mps 749 mmHg 57%
    18:00 +26°C° 0.2 mm 2 mps 749 mmHg 63%
    19:00 +24°C° 0.2 mm 2 mps 748 mmHg 69%
    20:00 +23°C° 0.5 mm 2 mps 748 mmHg 74%
    21:00 +21°C° 0.5 mm 2 mps 748 mmHg 79%
    22:00 +19°C° 0.5 mm 2 mps 748 mmHg 84%
    23:00 +19°C° 0.3 mm 2 mps 748 mmHg 87%

    Tomorrow, 17 July, Tuesday

    Time Temperature Precipitation Wind Pressure Humidity
    00:00 +18°C° 0.3 mm 2 mps 748 mmHg 90%
    01:00 +18°C° 0.3 mm 2 mps 748 mmHg 92%
    02:00 +18°C° 0 mm 2 mps 748 mmHg 93%
    03:00 +17°C° 0 mm 3 mps 748 mmHg 94%
    04:00 +17°C° 0 mm 3 mps 748 mmHg 95%
    05:00 +18°C° 0.4 mm 4 mps 748 mmHg 93%
    06:00 +18°C° 0.4 mm 4 mps 748 mmHg 91%
    07:00 +19°C° 0.4 mm 5 mps 747 mmHg 90%
    08:00 +19°C° 1.1 mm 5 mps 748 mmHg 89%
    09:00 +19°C° 1.1 mm 6 mps 748 mmHg 89%
    10:00 +19°C° 1.1 mm 6 mps 748 mmHg 89%
    11:00 +19°C° 0.7 mm 6 mps 747 mmHg 89%
    12:00 +19°C° 0.7 mm 6 mps 747 mmHg 89%
    13:00 +18°C° 0.7 mm 7 mps 747 mmHg 89%
    14:00 +18°C° 0.1 mm 7 mps 747 mmHg 88%
    15:00 +18°C° 0.1 mm 7 mps 747 mmHg 87%
    16:00 +20°C° 0.1 mm 7 mps 747 mmHg 85%
    17:00 +18°C° 0 mm 7 mps 747 mmHg 86%
    18:00 +19°C° 0 mm 6 mps 747 mmHg 86%
    19:00 +19°C° 0 mm 6 mps 748 mmHg 86%
    20:00 +19°C° 0 mm 6 mps 748 mmHg 88%
    21:00 +17°C° 0 mm 5 mps 748 mmHg 89%
    22:00 +17°C° 0 mm 5 mps 748 mmHg 90%
    23:00 +17°C° 0.1 mm 5 mps 748 mmHg 91%

    Day after tomorrow, 18 July, Wednesday

    Time Temperature Precipitation Wind Pressure Humidity
    00:00 +17°C° 0.1 mm 5 mps 747 mmHg 92%
    01:00 +17°C° 0.1 mm 5 mps 747 mmHg 93%
    02:00 +17°C° 0.1 mm 6 mps 747 mmHg 93%
    03:00 +17°C° 0.1 mm 6 mps 747 mmHg 93%
    04:00 +17°C° 0.1 mm 6 mps 747 mmHg 93%
    05:00 +17°C° 0.3 mm 6 mps 748 mmHg 92%
    06:00 +17°C° 0.3 mm 6 mps 748 mmHg 91%
    07:00 +19°C° 0.3 mm 6 mps 748 mmHg 90%
    08:00 +18°C° 1 mm 7 mps 748 mmHg 89%
    09:00 +18°C° 1 mm 7 mps 748 mmHg 87%
    10:00 +20°C° 1 mm 7 mps 748 mmHg 85%
    11:00 +20°C° 1.1 mm 6 mps 748 mmHg 84%
    12:00 +21°C° 1.1 mm 6 mps 748 mmHg 83%
    13:00 +21°C° 1.1 mm 6 mps 748 mmHg 83%
    14:00 +21°C° 0.7 mm 5 mps 748 mmHg 83%
    15:00 +21°C° 0.7 mm 5 mps 748 mmHg 83%
    16:00 +21°C° 0.7 mm 5 mps 749 mmHg 83%
    17:00 +21°C° 0.3 mm 5 mps 749 mmHg 85%
    18:00 +20°C° 0.3 mm 5 mps 749 mmHg 86%
    19:00 +20°C° 0.3 mm 5 mps 749 mmHg 88%
    20:00 +20°C° 0.2 mm 5 mps 749 mmHg 89%
    21:00 +19°C° 0.2 mm 5 mps 750 mmHg 90%
    22:00 +19°C° 0.2 mm 5 mps 750 mmHg 91%
    23:00 +19°C° 0.4 mm 5 mps 750 mmHg 91%

    19 July, Thursday

    Time Temperature Precipitation Wind Pressure Humidity
    00:00 +17°C° 0.4 mm 5 mps 750 mmHg 91%
    01:00 +17°C° 0.4 mm 5 mps 750 mmHg 92%
    02:00 +17°C° 0.6 mm 5 mps 750 mmHg 92%
    03:00 +17°C° 0.6 mm 5 mps 750 mmHg 92%
    04:00 +17°C° 0.6 mm 6 mps 750 mmHg 92%
    05:00 +17°C° 0.7 mm 6 mps 750 mmHg 92%
    06:00 +17°C° 0.7 mm 6 mps 750 mmHg 91%
    07:00 +17°C° 0.7 mm 6 mps 750 mmHg 91%
    08:00 +17°C° 0.9 mm 5 mps 750 mmHg 90%
    09:00 +19°C° 0.9 mm 5 mps 751 mmHg 89%
    10:00 +19°C° 0.9 mm 5 mps 751 mmHg 88%
    11:00 +20°C° 0.8 mm 5 mps 751 mmHg 86%
    12:00 +20°C° 0.8 mm 5 mps 751 mmHg 83%
    13:00 +21°C° 0.8 mm 4 mps 751 mmHg 81%
    14:00 +22°C° 0.3 mm 4 mps 751 mmHg 80%
    15:00 +22°C° 0.3 mm 4 mps 751 mmHg 79%
    16:00 +22°C° 0.3 mm 3 mps 751 mmHg 78%
    17:00 +22°C° 0 mm 3 mps 751 mmHg 80%
    18:00 +21°C° 0 mm 3 mps 751 mmHg 82%
    19:00 +21°C° 0 mm 3 mps 751 mmHg 84%
    20:00 +20°C° 0 mm 3 mps 751 mmHg 85%
    21:00 +19°C° 0 mm 3 mps 751 mmHg 86%
    22:00 +18°C° 0 mm 3 mps 752 mmHg 87%
    23:00 +18°C° 0 mm 3 mps 751 mmHg 87%

    20 July, Friday

    Time Temperature Precipitation Wind Pressure Humidity
    00:00 +17°C° 0 mm 3 mps 751 mmHg 86%
    01:00 +17°C° 0 mm 3 mps 751 mmHg 85%
    02:00 +16°C° 0 mm 3 mps 751 mmHg 85%
    03:00 +16°C° 0 mm 3 mps 751 mmHg 85%
    04:00 +14°C° 0 mm 3 mps 751 mmHg 84%
    05:00 +16°C° 0 mm 3 mps 751 mmHg 81%
    06:00 +17°C° 0 mm 3 mps 751 mmHg 78%
    07:00 +18°C° 0 mm 4 mps 751 mmHg 75%
    08:00 +20°C° 0 mm 4 mps 751 mmHg 69%
    09:00 +21°C° 0 mm 4 mps 751 mmHg 62%
    10:00 +23°C° 0 mm 4 mps 751 mmHg 56%
    11:00 +25°C° 0 mm 3 mps 751 mmHg 53%
    12:00 +26°C° 0 mm 3 mps 751 mmHg 49%
    13:00 +27°C° 0 mm 3 mps 751 mmHg 46%
    14:00 +27°C° 0 mm 3 mps 750 mmHg 45%
    15:00 +27°C° 0 mm 3 mps 750 mmHg 45%
    16:00 +27°C° 0 mm 2 mps 750 mmHg 44%
    17:00 +26°C° 0 mm 2 mps 750 mmHg 50%
    18:00 +25°C° 0 mm 2 mps 750 mmHg 56%
    19:00 +24°C° 0 mm 1 mps 749 mmHg 62%
    20:00 +22°C° 0 mm 1 mps 750 mmHg 66%
    21:00 +21°C° 0 mm 1 mps 750 mmHg 70%
    22:00 +19°C° 0 mm 1 mps 750 mmHg 74%
    23:00 +19°C° 0 mm 1 mps 750 mmHg 76%

    21 July, Saturday

    Time Temperature Precipitation Wind Pressure Humidity
    00:00 +18°C° 0 mm 1 mps 750 mmHg 79%
    01:00 +18°C° 0 mm 1 mps 750 mmHg 81%
    02:00 +16°C° 0 mm 1 mps 750 mmHg 81%
    03:00 +16°C° 0 mm 1 mps 750 mmHg 82%
    04:00 +16°C° 0 mm 1 mps 749 mmHg 83%
    05:00 +18°C° 0 mm 1 mps 750 mmHg 78%
    06:00 +20°C° 0 mm 1 mps 750 mmHg 73%
    07:00 +21°C° 0 mm 1 mps 750 mmHg 67%
    08:00 +23°C° 0 mm 1 mps 750 mmHg 63%
    09:00 +24°C° 0 mm 1 mps 750 mmHg 59%
    10:00 +26°C° 0 mm 1 mps 749 mmHg 55%
    11:00 +26°C° 0 mm 1 mps 749 mmHg 52%
    12:00 +27°C° 0 mm 1 mps 749 mmHg 50%
    13:00 +27°C° 0 mm 1 mps 749 mmHg 47%
    14:00 +27°C° 0 mm 1 mps 749 mmHg 47%
    15:00 +27°C° 0 mm 2 mps 748 mmHg 48%
    16:00 +27°C° 0 mm 2 mps 748 mmHg 48%
    17:00 +26°C° 0 mm 2 mps 748 mmHg 53%
    18:00 +25°C° 0 mm 2 mps 748 mmHg 58%
    19:00 +24°C° 0 mm 1 mps 748 mmHg 63%
    20:00 +23°C° 0 mm 1 mps 748 mmHg 65%
    21:00 +21°C° 0 mm 1 mps 748 mmHg 67%
    22:00 +19°C° 0 mm 2 mps 749 mmHg 68%
    23:00 +20°C° 0 mm 1 mps 749 mmHg 70%
    Show more